sat.trackr.live / text

‹ back to catalog

STARLINK-11490 [DTC]

NORAD 62219 · 2024-231B

PAYLOAD ACTIVE UNKNOWN

§ Identity

Operator
Country
US
Launch date
2024-12-05
Launch site
AFWTR
Launch vehicle
Mass (kg)
RCS (m²)

Purposes: comms

External: N2YO · Heavens-Above · Gunter

§ Orbital elements

Epoch: 2026-09-21T07:14:03.239232Z

Period
91.73 min
Inclination
53.1575°
Eccentricity
0.0001345
Mean motion
15.69747142 rev/d
Perigee alt
358.7 km
Apogee alt
360.5 km
Semi-major
6,737.8 km
B*
8.4459e-4
RAAN
217.0381°
Arg perigee
62.7268°
Mean anomaly
297.3887°
Rev number
10,413

§ Raw data

STARLINK-11490 [DTC]1 62219U 24231B   26264.30142638  .00103173  00000+0  84459-3 0  99962 62219  53.1575 217.0381 0001345  62.7268 297.3887 15.69747142104133

JSON: /api/v1/satellites/62219 · /tle

For live sub-satellite position, see the globe view (requires WebGL).

§ Visibility from observer

Set your observer location to see the next 7 days of passes ≥ 10°. The values pass through the URL so the page stays shareable.

No JS? Fill the form by hand. The geolocation button needs JavaScript.